This is the latest recevied weather packets stored in our database for station/object K0FJ-1. If no packets are shown the sender has not sent any weather packets the latest 10 day(s).
| Time | Temp. | Humidity | Pressure | Rain* | Wind** | Luminosity | Snow |
|---|---|---|---|---|---|---|---|
| 1787385003 | 21.67° C | 75% | 1023 hPa | 0.76 mm | - | - | - |
| 1787384703 | 21.67° C | 79% | 1023.3 hPa | 0.76 mm | - | - | - |
| 1787384403 | 21.67° C | 78% | 1022.4 hPa | 1.02 mm | - | - | - |
| 1787384103 | 21.67° C | 80% | 1022.4 hPa | 0.76 mm | - | - | - |
| 1787383803 | 21.67° C | 80% | 1022.9 hPa | 0.51 mm | - | - | - |
| 1787383503 | 21.67° C | 78% | 1023 hPa | 0.51 mm | - | - | - |
| 1787383203 | 21.67° C | 79% | 1022.8 hPa | 0.51 mm | - | - | - |
| 1787382903 | 21.67° C | 78% | 1022.8 hPa | 0.51 mm | - | - | - |
| 1787382603 | 21.67° C | 78% | 1023.1 hPa | 0.51 mm | - | - | - |
| 1787382303 | 22.22° C | 76% | 1023.4 hPa | 0.51 mm | - | - | - |
| 1787382003 | 22.22° C | 72% | 1023.8 hPa | 0.25 mm | - | - | - |
| 1787381703 | 22.22° C | 72% | 1024 hPa | 0.25 mm | - | - | - |
| 1787381403 | 22.78° C | 72% | 1024.1 hPa | 0.25 mm | - | - | - |
| 1787381103 | 23.33° C | 74% | 1024.1 hPa | 0.25 mm | - | - | - |
| 1787380803 | 23.33° C | 78% | 1024.3 hPa | 0 mm | - | - | - |
| 1787380503 | 23.33° C | 81% | 1024.3 hPa | 0 mm | - | - | - |
| 1787380203 | 23.89° C | 80% | 1024.3 hPa | 0 mm | - | - | - |
| 1787379903 | 24.44° C | 78% | 1024.5 hPa | 0 mm | - | - | - |
| 1787379603 | 25° C | 75% | 1024.3 hPa | 0 mm | - | - | - |
| 1787379303 | 25° C | 73% | 1024.1 hPa | 0 mm | - | - | - |
| 1787379003 | 25° C | 72% | 1023.7 hPa | 0 mm | - | - | - |
| 1787378703 | 25° C | 74% | 1023.6 hPa | 0 mm | - | - | - |
| 1787378403 | 24.44° C | 75% | 1023.3 hPa | 0 mm | - | - | - |
| 1787378103 | 24.44° C | 77% | 1023.2 hPa | 0 mm | - | - | - |
| 1787377803 | 24.44° C | 77% | 1023.4 hPa | 0 mm | - | - | - |
* Rain latest hour (hover to see other rain measurements)
** Current wind speed in m/s (hover to see current wind gust speed)